Regional Weather Roundup
Issued by NWS Sioux Falls, SD

Home | Current Version | Previous Version | Graphics & Text | Print | Product List | Glossary On
Versions: 1 2 3 4 5 6 7 8 9 10 11 12 13 14 15 16 17 18 19 20 21 22 23 24 25 26 27 28 29 30 31 32 33 34 35 36 37 38 39 40 41 42 43 44 45 46 47 48 49 50
852
ASUS43 KFSD 100810
RWRFSD

WEATHER ROUNDUP FOR SE SOUTH DAKOTA/SW MINNESOTA/NW IOWA
NATIONAL WEATHER SERVICE SIOUX FALLS SD
200 AM CST WED FEB 10 2016

NOTE: "FAIR" INDICATES FEW OR NO CLOUDS BELOW 12,000 FEET WITH NO
SIGNIFICANT WEATHER AND OR OBSTRUCTIONS TO VISIBILITY.


SDZ038>040-050-052>070-100900-
SOUTHEAST SOUTH DAKOTA

CITY           SKY/WX    TMP DP  RH WIND       PRES   REMARKS
BROOKINGS      PTCLDY    15  10  80 E6        30.06F WCI   6
CHAMBERLAIN    CLOUDY    28  24  84 E3        29.99F
HURON          CLOUDY    25  19  78 SE8       30.04F WCI  16
MADISON        CLOUDY    18  16  93 SE8       30.05F WCI   7
MITCHELL       CLOUDY    27  20  75 SE7       30.05F WCI  19
SIOUX FALLS    CLOUDY    21  12  68 SE7       30.08F WCI  12
WINNER         FAIR      34  25  69 S7        29.97F WCI  28
YANKTON        CLOUDY    21  16  79 E7        30.06F WCI  13
$$

MNZ071-072-080-081-089-090-097-098-100900-
SOUTHWEST MINNESOTA

CITY           SKY/WX    TMP DP  RH WIND       PRES   REMARKS
FAIRMONT       CLOUDY     9   1  72 N8        30.11S WCI  -4
JACKSON        CLOUDY    16   9  73 N10       30.09F WCI   3
LUVERNE        CLOUDY    21  14  73 SE3       30.09F
MARSHALL       CLOUDY    13   5  70 N7        30.11F WCI   3
MONTEVIDEO     CLOUDY    10   3  72 E8        30.15F WCI  -1
PIPESTONE      CLOUDY    18   7  62 E3        30.06F
REDWOOD FALLS  CLOUDY    10   1  67 N6        30.14F WCI   0
TRACY          CLOUDY    14   9  78 N8        30.10F WCI   3
WINDOM         CLOUDY    12   7  79 N8        30.09F WCI   1
WORTHINGTON    CLOUDY    16   7  67 N7        30.09F WCI   6
$$

IAZ001>003-012>014-020>022-031-032-NEZ013-014-SDZ071-100900-
NORTHWEST IOWA

CITY           SKY/WX    TMP DP  RH WIND       PRES   REMARKS
CHEROKEE       CLOUDY    18  14  86 CALM      30.12F
DENISON        CLOUDY    18  12  79 CALM      30.11F
ESTHERVILLE    CLOUDY    13   8  81 N9        30.10F WCI   1
LE MARS        CLOUDY    19  16  86 CALM      30.13S
ORANGE CITY    CLOUDY    19  14  79 CALM      30.10F
SHELDON        CLOUDY    18  14  86 CALM      30.09F
SIOUX CITY     CLOUDY    19  13  77 E7        30.12F WCI  10
SPENCER        CLOUDY    17  10  74 N5        30.11F WCI  10
STORM LAKE     CLOUDY    18  14  86 W7        30.11F WCI   8
$$

ABBREVIATIONS USED IN REMARKS
   TC - TEMPERATURE IN CELSIUS
  WCI - WIND CHILL INDEX
   HX - HEAT INDEX
  VSB - VISIBILITY





USA.gov is the U.S. government's official web portal to all federal, state and local government web resources and services.